Finikia — YKRO — position and weather

sailwx.info

Track history (hours):
 
Tides and Currents Weather Stations Pressure Air Temp Water Temp Dewpoint Dewpoint Depression Visibility Wind Speed Wind Dir Waves Ship Positions

Finikia

Last reported at 2014-Nov-07 05:04 UTC. Time now 2014-Nov-28 07:01 UTC.
Position N 36°45' E 026°48'.
Warning: this ship's position is 21 days out of date.

Length 138 m; draft 6 m.

Type: Cargo ship. MMSI: 468395000.

Date/timePositionNaut miles runAvg speedWind from/ knotsBaromVisibWave heightAir tempDewpointWater temp
2014-Nov-07 05:04N 36°45' E 026°48'2312.6
2014-Nov-07 03:17N 37°03' E 026°31'912.4
2014-Nov-07 02:33N 37°09' E 026°23'1111.4
2014-Nov-07 01:33N 37°17' E 026°12'1211.8
2014-Nov-07 00:33N 37°25' E 026°01'1111.5
2014-Nov-06 23:33N 37°35' E 025°53'2512.4
2014-Nov-06 21:33N 37°59' E 025°46'1712.3
2014-Nov-06 20:10N 38°16' E 025°46'2012.2
2014-Nov-06 18:32N 38°36' E 025°46'190 7.9
2014-Nov-05 18:23N 40°53' E 028°38'1012.1
2014-Nov-05 17:33N 40°55' E 028°51'5 4.5
2014-Nov-05 16:28N 40°58' E 028°56'0 0.0
2014-Nov-05 15:33N 40°58' E 028°56'0 0.0
2014-Nov-05 14:33N 40°58' E 028°56'0 0.2
2014-Nov-05 13:33N 40°58' E 028°56'  
2014-Oct-30 15:30N 46°29' E 030°45'0 0.0
2014-Oct-30 14:24N 46°29' E 030°45'0 0.0
2014-Oct-30 13:30N 46°29' E 030°45'0 0.0
2014-Oct-30 12:30N 46°29' E 030°45'0 0.0
2014-Oct-30 11:18N 46°29' E 030°45'0 0.0
2014-Oct-30 10:30N 46°29' E 030°45'0 0.0
2014-Oct-30 08:18N 46°29' E 030°45'0 0.0
2014-Oct-30 00:18N 46°29' E 030°45'0 0.0
2014-Oct-29 23:30N 46°29' E 030°45'0 0.0
2014-Oct-29 22:30N 46°29' E 030°45'3 0.6
2014-Oct-29 17:14N 46°29' E 030°50'30710.7
2014-Oct-28 12:26N 41°28' E 029°18'9 9.7
2014-Oct-28 11:33N 41°20' E 029°15'26 8.7
2014-Oct-28 08:33N 40°57' E 028°59'10 8.7
2014-Oct-28 07:22N 40°48' E 028°53'8 9.3
2014-Oct-28 06:33N 40°40' E 028°52'2 2.1
2014-Oct-28 05:26N 40°38' E 028°53'  
Track history (hours):
 
Tides and Currents Weather Stations Pressure Air Temp Water Temp Dewpoint Dewpoint Depression Visibility Wind Speed Wind Dir Waves Ship Positions

Finikia

Last reported at 2014-Nov-07 05:04 UTC. Time now 2014-Nov-28 07:01 UTC.
Position N 36°45' E 026°48'.
Warning: this ship's position is 21 days out of date.

Length 138 m; draft 6 m.

Type: Cargo ship. MMSI: 468395000.

Date/timePositionNaut miles runAvg speedWind from/ knotsBaromVisibWave heightAir tempDewpointWater temp
2014-Nov-07 05:04N 36°45' E 026°48'2312.6
2014-Nov-07 03:17N 37°03' E 026°31'912.4
2014-Nov-07 02:33N 37°09' E 026°23'1111.4
2014-Nov-07 01:33N 37°17' E 026°12'1211.8
2014-Nov-07 00:33N 37°25' E 026°01'1111.5
2014-Nov-06 23:33N 37°35' E 025°53'2512.4
2014-Nov-06 21:33N 37°59' E 025°46'1712.3
2014-Nov-06 20:10N 38°16' E 025°46'2012.2
2014-Nov-06 18:32N 38°36' E 025°46'190 7.9
2014-Nov-05 18:23N 40°53' E 028°38'1012.1
2014-Nov-05 17:33N 40°55' E 028°51'5 4.5
2014-Nov-05 16:28N 40°58' E 028°56'0 0.0
2014-Nov-05 15:33N 40°58' E 028°56'0 0.0
2014-Nov-05 14:33N 40°58' E 028°56'0 0.2
2014-Nov-05 13:33N 40°58' E 028°56'  
2014-Oct-30 15:30N 46°29' E 030°45'0 0.0
2014-Oct-30 14:24N 46°29' E 030°45'0 0.0
2014-Oct-30 13:30N 46°29' E 030°45'0 0.0
2014-Oct-30 12:30N 46°29' E 030°45'0 0.0
2014-Oct-30 11:18N 46°29' E 030°45'0 0.0
2014-Oct-30 10:30N 46°29' E 030°45'0 0.0
2014-Oct-30 08:18N 46°29' E 030°45'0 0.0
2014-Oct-30 00:18N 46°29' E 030°45'0 0.0
2014-Oct-29 23:30N 46°29' E 030°45'0 0.0
2014-Oct-29 22:30N 46°29' E 030°45'3 0.6
2014-Oct-29 17:14N 46°29' E 030°50'30710.7
2014-Oct-28 12:26N 41°28' E 029°18'9 9.7
2014-Oct-28 11:33N 41°20' E 029°15'26 8.7
2014-Oct-28 08:33N 40°57' E 028°59'10 8.7
2014-Oct-28 07:22N 40°48' E 028°53'8 9.3
2014-Oct-28 06:33N 40°40' E 028°52'2 2.1
2014-Oct-28 05:26N 40°38' E 028°53'  

Dump ship's entire track history